QPF
0.00 0.00 0.00 0.00 0.00 0.02 0.17 0.18 0.13 0.25 0.31 0.16 0.13 0.05 0.01 0.00 0.00 0.00 0.00 0.00 0.00 0.00 0.00 0.00 0.00 0.00 0.00 0.00 0.00 0.00 0.00 0.00
0.00 0.00 0.00 0.00 0.00 0.06 0.24 0.26 0.25 0.16 0.13 0.07 0.01 0.00 0.00 0.00 0.00 0.00 0.00 0.00 0.00 0.00 0.00 0.00 0.00 0.00 0.00 0.00 0.00 0.00 0.00 0.00
0.00 0.00 0.00 0.01 0.07 0.13 0.12 0.08 0.03 0.01 0.00 0.00 0.00 0.00 0.00 0.00 0.00 0.00 0.00 0.00 0.00 0.00 0.00 0.00 0.00 0.00 0.00 0.00 0.00 0.00 0.00 0.00
0.00 0.03 0.04 0.07 0.06 0.02 0.00 0.00 0.00 0.00 0.00 0.00 0.00 0.00 0.00 0.00 0.00 0.00 0.00 0.00 0.00 0.00 0.00 0.00 0.00 0.00 0.00 0.00 0.00 0.00 0.00 0.00
0.00 0.00 0.00 0.00 0.00 0.00 0.00 0.00 0.00 0.00 0.00 0.00 0.00 0.00 0.00 0.00 0.00 0.00 0.00 0.00 0.00 0.00 0.00 0.00 0.00 0.00 0.00 0.00 0.00 0.00 0.00 0.00
0.00 0.00 0.00 0.00 0.00 0.00 0.00 0.00 0.00 0.00 0.00 0.00 0.00 0.00 0.00 0.00 0.00 0.00 0.00 0.00 0.00 0.00 0.00 0.00 0.00 0.00 0.00 0.00 0.00 0.00 0.00 0.00
0.00 0.00 0.00 0.00 0.00 0.00 0.00 0.00 0.00 0.00 0.00 0.00 0.00 0.00 0.00 0.00 0.00 0.00 0.00 0.00 0.00 0.00 0.00 0.00 0.00 0.00 0.00 0.00 0.00 0.00 0.00 0.00
0.00 0.00 0.00 0.00 0.00 0.00 0.00 0.00 0.00 0.00 0.00 0.00 0.00 0.00 0.00 0.00 0.00 0.00 0.00 0.00 0.00 0.00 0.00 0.00 0.00 0.00 0.00 0.00 0.00 0.00 0.00 0.00
0.00 0.00 0.00 0.00 0.00 0.00 0.00 0.00 0.00 0.00 0.00 0.00 0.00 0.00 0.00 0.00 0.00 0.00 0.00 0.00 0.00 0.00 0.00 0.00 0.00 0.00 0.00 0.00 0.00 0.00 0.00 0.00
0.00 0.00 0.00 0.00 0.00 0.00 0.00 0.00 0.00 0.00 0.00 0.00 0.00 0.00 0.00 0.00 0.00 0.00 0.00 0.00 0.00 0.00 0.00 0.00 0.00 0.00 0.00 0.00 0.00 0.00 0.00 0.00
0.00 0.00 0.00 0.00 0.00 0.00 0.00 0.00 0.00 0.00 0.00 0.00 0.00 0.00 0.00 0.00 0.00 0.00 0.00 0.00 0.00 0.00 0.00 0.00 0.00 0.00 0.00 0.00 0.00 0.00 0.00 0.00
0.00 0.00 0.00 0.00 0.00 0.00 0.00 0.00 0.00 0.00 0.00 0.00 0.00 0.00 0.00 0.00 0.00 0.00 0.00 0.00 0.00 0.00 0.00 0.00 0.00 0.00 0.00 0.00 0.00 0.00 0.00 0.00
0.00 0.00 0.00 0.00 0.00 0.00 0.00 0.00 0.00 0.00 0.00 0.00 0.00 0.00 0.00 0.00 0.00 0.00 0.00 0.00 0.00 0.00 0.00 0.00 0.00 0.00 0.00 0.00 0.00 0.00 0.00 0.00
0.00 0.00 0.00 0.00 0.00 0.00 0.00 0.00 0.00 0.00 0.00 0.00 0.00 0.00 0.00 0.00 0.00 0.00 0.00 0.00 0.00 0.00 0.00 0.00 0.00 0.00 0.00 0.00 0.00 0.00 0.00 0.00
0.00 0.00 0.00 0.00 0.00 0.00 0.00 0.00 0.00 0.00 0.00 0.00 0.00 0.00 0.00 0.00 0.00 0.00 0.00 0.00 0.00 0.00 0.00 0.00 0.00 0.00 0.00 0.00 0.00 0.00 0.00 0.00
0.00 0.00 0.00 0.00 0.00 0.00 0.00 0.00 0.00 0.00 0.00 0.00 0.00 0.00 0.00 0.00 0.00 0.00 0.00 0.00 0.00 0.00 0.00 0.01 0.01 0.00 0.00 0.00 0.00 0.00 0.00 0.00
0.00 0.00 0.00 0.00 0.00 0.00 0.00 0.00 0.00 0.00 0.00 0.00 0.00 0.00 0.00 0.00 0.00 0.00 0.00 0.00 0.00 0.00 0.02 0.03 0.01 0.00 0.00 0.00 0.00 0.00 0.00 0.00
0.00 0.00 0.00 0.00 0.00 0.00 0.00 0.00 0.00 0.00 0.00 0.00 0.00 0.00 0.00 0.00 0.00 0.00 0.00 0.00 0.00 0.00 0.00 0.00 0.00 0.00 0.00 0.00 0.00 0.00 0.00 0.00
0.00 0.00 0.00 0.00 0.00 0.00 0.00 0.00 0.00 0.00 0.00 0.00 0.00 0.00 0.00 0.00 0.00 0.00 0.00 0.00 0.00 0.00 0.00 0.00 0.00 0.00 0.00 0.00 0.00 0.00 0.00 0.00
MSLP
1019.96 1019.76 1019.47 1019.31 1019.51 1019.82 1020.25 1020.99 1021.63 1021.81 1022.24 1022.74 1023.10 1022.94 1023.06 1022.62 1022.37 1022.65 1022.64 1022.72 1022.76 1022.92 1023.18 1023.39 1023.49 1023.48 1023.82 1023.79 1023.86 1023.71 1023.74 1023.78
1020.60 1020.52 1020.47 1020.35 1020.52 1020.54 1020.94 1021.06 1021.69 1022.59 1023.28 1023.03 1023.13 1023.50 1023.41 1023.06 1022.94 1022.98 1023.10 1023.08 1023.28 1023.49 1023.72 1023.72 1023.70 1023.82 1024.07 1024.11 1024.21 1024.14 1023.94 1023.75
1021.23 1021.19 1020.99 1020.96 1021.12 1021.09 1021.25 1021.44 1021.88 1022.25 1022.42 1022.59 1022.79 1023.10 1023.37 1023.43 1023.43 1023.35 1023.47 1023.64 1023.69 1023.66 1023.75 1023.90 1023.97 1024.08 1024.29 1024.40 1024.42 1024.43 1024.21 1023.96
1021.67 1021.49 1021.68 1021.79 1021.59 1021.46 1021.67 1021.71 1021.96 1022.19 1022.41 1022.73 1023.10 1023.31 1023.36 1023.56 1023.80 1024.03 1024.02 1023.92 1023.88 1023.88 1023.93 1024.06 1024.27 1024.39 1024.55 1024.52 1024.44 1024.44 1024.45 1024.15
1021.96 1021.89 1021.61 1021.59 1021.80 1021.77 1021.61 1021.91 1022.18 1022.33 1022.34 1022.72 1023.03 1023.45 1023.74 1023.92 1024.07 1024.29 1024.29 1024.11 1024.09 1024.13 1024.29 1024.47 1024.58 1024.57 1024.57 1024.48 1024.37 1024.49 1024.48 1024.52
1021.90 1022.01 1022.09 1021.45 1021.99 1022.28 1022.21 1022.28 1022.77 1022.90 1022.86 1023.00 1023.37 1023.62 1023.96 1024.15 1024.24 1024.30 1024.41 1024.50 1024.53 1024.52 1024.51 1024.52 1024.52 1024.55 1024.57 1024.58 1024.61 1024.63 1024.66 1024.73
1021.59 1021.76 1022.00 1021.91 1022.42 1022.67 1022.39 1022.40 1023.11 1023.16 1023.39 1023.64 1023.86 1023.96 1024.17 1024.39 1024.48 1024.62 1024.74 1024.80 1024.76 1024.55 1024.38 1024.38 1024.39 1024.40 1024.42 1024.44 1024.48 1024.61 1024.66 1024.71
1021.77 1022.04 1022.41 1022.66 1022.21 1023.16 1023.06 1023.16 1023.67 1023.82 1024.07 1024.31 1024.29 1024.40 1024.47 1024.59 1024.67 1024.71 1024.67 1024.63 1024.49 1024.31 1024.27 1024.30 1024.29 1024.22 1024.24 1024.26 1024.36 1024.40 1024.43 1024.59
1022.03 1022.30 1022.41 1022.64 1022.92 1023.26 1023.13 1023.71 1024.05 1024.25 1024.56 1024.45 1024.55 1024.47 1024.45 1024.44 1024.41 1024.41 1024.39 1024.34 1024.15 1023.88 1023.89 1023.90 1023.94 1024.06 1024.11 1024.24 1024.23 1024.23 1024.25 1024.16
1022.07 1022.36 1022.55 1022.71 1022.97 1023.35 1023.75 1023.90 1024.18 1024.48 1024.50 1024.57 1024.54 1024.37 1024.34 1024.25 1024.16 1024.18 1024.16 1024.03 1023.77 1023.72 1023.73 1023.94 1024.07 1024.13 1024.15 1024.18 1024.21 1023.96 1024.14 1023.94
1022.49 1022.67 1022.97 1023.14 1023.43 1023.67 1023.73 1024.04 1024.35 1024.52 1024.66 1024.65 1024.39 1024.21 1024.13 1024.11 1024.11 1023.99 1023.89 1023.70 1023.68 1023.77 1023.88 1023.93 1023.85 1023.74 1023.80 1023.87 1023.83 1023.71 1023.86 1023.86
1022.94 1023.21 1023.28 1023.48 1023.76 1023.60 1023.96 1024.29 1024.35 1024.44 1024.39 1024.42 1024.40 1024.39 1024.47 1024.41 1024.26 1023.93 1023.65 1023.63 1023.70 1023.76 1023.61 1023.49 1023.49 1023.48 1023.33 1023.52 1023.59 1023.62 1023.70 1023.83
1023.51 1023.75 1023.74 1023.75 1023.82 1024.01 1024.24 1024.30 1024.38 1024.48 1024.58 1024.54 1024.45 1024.40 1024.34 1024.25 1024.14 1023.84 1023.61 1023.49 1023.36 1023.37 1023.24 1023.23 1023.15 1023.21 1023.05 1023.27 1023.46 1023.67 1023.76 1023.87
1024.18 1024.12 1024.09 1024.16 1024.14 1024.19 1024.40 1024.61 1024.72 1024.66 1024.59 1024.57 1024.39 1024.30 1024.31 1024.14 1023.86 1023.52 1023.29 1023.33 1023.20 1022.90 1022.93 1022.91 1022.82 1022.83 1023.16 1023.20 1023.58 1023.78 1023.87 1023.92
1024.13 1024.17 1024.25 1024.38 1024.54 1024.57 1024.80 1024.88 1024.75 1024.75 1024.72 1024.66 1024.59 1024.41 1024.21 1024.02 1023.75 1023.43 1023.18 1022.85 1022.88 1023.06 1022.94 1022.86 1022.59 1022.86 1023.24 1023.52 1023.83 1023.87 1023.87 1023.80
1024.20 1024.39 1024.49 1024.74 1024.91 1024.92 1025.00 1025.12 1025.08 1024.95 1024.85 1024.61 1024.49 1024.32 1024.10 1023.82 1023.60 1023.36 1023.22 1023.21 1023.18 1023.13 1023.03 1023.00 1022.95 1022.57 1022.96 1023.50 1023.72 1023.80 1023.69 1023.52
1024.31 1024.58 1024.87 1025.02 1025.17 1025.28 1025.31 1025.31 1025.18 1024.92 1024.81 1024.62 1024.40 1024.19 1023.99 1023.85 1023.67 1023.44 1023.25 1023.22 1023.15 1023.08 1023.07 1023.09 1022.97 1022.84 1023.10 1023.35 1023.43 1023.52 1023.58 1023.53
1024.46 1024.75 1024.94 1025.14 1025.33 1025.45 1025.53 1025.41 1025.11 1024.92 1024.74 1024.41 1024.23 1024.16 1024.12 1023.87 1023.67 1023.45 1023.33 1023.24 1023.16 1023.16 1023.12 1023.10 1023.11 1023.11 1023.25 1023.32 1023.37 1023.62 1023.73 1023.61
1024.46 1024.75 1025.09 1025.29 1025.55 1025.64 1025.59 1025.36 1025.20 1025.00 1024.68 1024.46 1024.27 1024.16 1024.11 1023.86 1023.57 1023.26 1023.06 1022.99 1022.97 1022.98 1023.10 1023.27 1023.22 1023.35 1023.38 1023.42 1023.61 1023.80 1023.74 1023.52
Thickness
5642 5644 5646 5647 5645 5641 5636 5628 5619 5607 5597 5589 5584 5587 5585 5586 5585 5578 5574 5570 5565 5561 5554 5549 5546 5543 5538 5534 5530 5527 5523 5519
5633 5633 5633 5633 5631 5629 5625 5621 5611 5596 5586 5586 5582 5576 5574 5574 5570 5566 5560 5556 5549 5543 5539 5536 5533 5530 5525 5519 5514 5510 5508 5504
5625 5625 5624 5622 5620 5619 5616 5610 5603 5595 5590 5584 5579 5572 5565 5560 5556 5553 5546 5540 5536 5532 5528 5523 5518 5512 5505 5500 5495 5490 5485 5480
5616 5617 5614 5611 5610 5608 5605 5600 5594 5589 5582 5576 5569 5562 5557 5551 5544 5537 5531 5527 5524 5520 5515 5508 5501 5495 5487 5481 5476 5469 5463 5459
5609 5610 5610 5607 5603 5601 5599 5593 5586 5580 5574 5568 5561 5552 5545 5537 5532 5526 5521 5518 5514 5509 5502 5495 5487 5481 5473 5466 5458 5450 5443 5435
5603 5602 5599 5603 5596 5590 5587 5581 5572 5568 5563 5557 5549 5544 5534 5528 5522 5516 5511 5506 5499 5493 5487 5480 5473 5465 5457 5448 5439 5430 5419 5410
5600 5595 5591 5591 5583 5576 5574 5571 5561 5555 5549 5543 5536 5531 5526 5518 5512 5505 5497 5491 5485 5480 5473 5464 5455 5446 5436 5426 5415 5403 5393 5382
5592 5587 5583 5578 5577 5562 5559 5554 5546 5541 5535 5528 5524 5519 5514 5507 5500 5493 5487 5480 5473 5465 5456 5446 5436 5425 5414 5403 5390 5377 5366 5354
5585 5581 5574 5569 5561 5554 5550 5542 5535 5530 5523 5520 5515 5511 5504 5497 5490 5483 5475 5466 5458 5449 5438 5427 5414 5400 5387 5373 5362 5351 5340 5327
5579 5571 5564 5560 5553 5545 5538 5534 5528 5521 5516 5510 5506 5501 5494 5487 5480 5471 5461 5452 5442 5431 5417 5402 5387 5374 5362 5349 5336 5326 5312 5303
5566 5561 5555 5549 5543 5537 5532 5525 5517 5511 5505 5500 5495 5489 5481 5472 5463 5455 5447 5436 5422 5408 5394 5382 5370 5356 5341 5327 5313 5301 5290 5282
5557 5550 5546 5539 5532 5529 5522 5514 5509 5502 5496 5488 5480 5472 5464 5457 5449 5440 5429 5416 5402 5390 5376 5364 5351 5336 5321 5304 5290 5280 5273 5266
5544 5537 5534 5529 5525 5518 5510 5504 5498 5490 5482 5475 5468 5461 5452 5442 5432 5422 5411 5401 5388 5373 5358 5343 5330 5316 5300 5283 5272 5264 5260 5255
5531 5525 5521 5517 5512 5506 5499 5491 5484 5477 5470 5462 5454 5446 5436 5426 5418 5408 5396 5383 5370 5357 5340 5322 5307 5294 5281 5270 5260 5254 5250 5244
5525 5518 5512 5506 5500 5493 5485 5478 5472 5464 5456 5448 5440 5432 5422 5412 5402 5392 5379 5366 5351 5335 5319 5303 5289 5276 5265 5255 5248 5244 5240 5235
5517 5509 5502 5494 5486 5480 5473 5465 5458 5452 5443 5436 5427 5417 5407 5397 5386 5374 5359 5343 5328 5312 5299 5285 5274 5269 5258 5247 5241 5237 5232 5229
5507 5498 5490 5482 5475 5467 5459 5452 5446 5439 5430 5423 5413 5402 5391 5379 5367 5353 5339 5324 5308 5295 5283 5274 5267 5261 5251 5243 5237 5232 5226 5221
5496 5486 5477 5469 5462 5455 5447 5440 5433 5425 5417 5408 5398 5386 5373 5360 5347 5332 5317 5302 5290 5279 5272 5266 5259 5252 5244 5237 5231 5224 5217 5212
5484 5474 5465 5458 5449 5441 5433 5426 5418 5410 5402 5392 5381 5368 5354 5341 5328 5315 5300 5288 5278 5270 5263 5256 5251 5244 5237 5231 5223 5215 5209 5202